Regional Weather Roundup
Issued by NWS

Home | Current Version | Previous Version | Graphics & Text | Print | Product List | Glossary On
Versions: 1 2 3 4 5 6 7 8 9 10 11 12 13 14 15 16 17 18 19 20 21 22 23 24 25 26 27 28 29 30 31 32 33 34 35 36 37 38 39 40 41 42 43 44 45 46 47 48 49 50
000
ASUS43 KDMX 060903
RWRIA

WEATHER ROUNDUP FOR IOWA
NATIONAL WEATHER SERVICE DES MOINES IA
400 AM CDT FRI MAY 06 2016

NOTE: "FAIR" INDICATES FEW OR NO CLOUDS BELOW 12,000 FEET WITH NO
SIGNIFICANT WEATHER AND/OR OBSTRUCTIONS TO VISIBILITY.

* - THESE STATIONS ARE NOT NWS STATIONS...THUS NOT UNDER NWS
QUALITY CONTROL.  THEY ALSO DO NOT REPORT WEATHER SUCH
AS PRECIPITATION OR FOG.

IAZ001>003-012>014-020>022-031>034-043>046-061000-
   NORTHWEST IOWA

CITY           SKY/WX    TMP DP  RH WIND       PRES   REMARKS
CARROLL *      PTCLDY    59  41  51 SW14      29.97S
CHEROKEE *     CLEAR     49  44  83 CALM      29.96F
DENISON *      CLEAR     57  41  54 CALM      29.97S
LE MARS *      PTCLDY    54  43  66 S6        29.96S
ORANGE CITY *  CLEAR     54  43  66 S5        29.95S
SHELDON *      CLEAR     54  43  66 S8        29.94S
SIOUX CITY     CLEAR     50  44  80 SE8       29.96S
SPENCER        CLEAR     53  41  63 SW7       29.95F
STORM LAKE *   CLEAR     57  41  54 SW10      29.97F
$$

IAZ055>058-069>071-079>083-090>094-061000-
   SOUTHWEST IOWA

CITY           SKY/WX    TMP DP  RH WIND       PRES   REMARKS
ATLANTIC *     CLEAR     48  43  81 CALM      30.01R
AUDUBON *      CLEAR     46  41  81 CALM      30.01S
CLARINDA *       N/A     48  46  93 MISG      30.03F
COUNCIL BLFS * CLEAR     59  43  55 SW9       30.00S
CRESTON *      CLEAR     52  41  66 SW6       30.03S
HARLAN  *      CLEAR     54  43  66 S6        30.03S
LAMONI         PTCLDY    52  40  63 S7        30.02S
RED OAK *      CLEAR     48  45  87 CALM      30.02R
SHENANDOAH *   PTCLDY    52  45  76 S5        30.02S
$$

IAZ047>049-059>061-072>074-084-061000-
   CENTRAL IOWA

CITY           SKY/WX    TMP DP  RH WIND       PRES   REMARKS
AMES           CLEAR     51  42  71 SW3       29.97S
ANKENY *       CLEAR     48  43  81 S5        29.99R
BOONE *        CLEAR     54  43  66 SW9       29.96F
CHARITON *     PTCLDY    54  37  54 SW9       30.01S
DES MOINES     CLEAR     53  41  63 S3        29.99S
GRINNELL*      CLEAR     52  37  58 SW7       29.99S
KNOXVILLE *    PTCLDY    52  37  58 SW8       29.98F
MARSHALLTOWN   CLEAR     49  39  68 SW6       29.96S
NEWTON *       CLEAR     54  39  58 SW7       29.98F
PELLA *        PTCLDY    52  38  58 SW3       30.01S
PERRY *          N/A     54  43  66 SW6       29.98S
$$

IAZ004>006-015-016-023>025-035-036-061000-
   NORTH CENTRAL IOWA

CITY           SKY/WX    TMP DP  RH WIND       PRES   REMARKS
ALGONA *       CLEAR     55  41  58 SW13      29.95S
CLARION *      CLEAR     48  39  71 S7        29.96S
ESTHERVILLE    CLEAR     57  41  55 SW14      29.94S
FORT DODGE *   CLEAR     52  39  62 CALM      29.97S
MASON CITY     CLEAR     58  42  55 W12       29.95S
FOREST CITY *    N/A     45  37  76 CALM      29.95R
WEBSTER CITY * CLEAR     50  43  76 SW9       29.95S
IOWA FALLS *     N/A     55  41  58 SW12      29.97R
$$

IAZ007>011-017>019-026>030-037>042-050>054-066-061000-
   NORTHEAST IOWA

CITY           SKY/WX    TMP DP  RH WIND       PRES   REMARKS
CEDAR RAPIDS   CLEAR     49  39  68 SW6       29.96S
CHARLES CITY * CLEAR     50  39  66 SW7       29.93F
CLINTON *      CLEAR     48  41  76 SW5       29.99R
DECORAH *      PTCLDY    55  37  50 SW5       29.92S
DUBUQUE        CLEAR     47  38  71 S7        29.96S
MONTICELLO *   CLEAR     48  37  66 CALM      29.95F
OELWEIN *      CLEAR     48  39  71 S8        29.95F
WATERLOO       CLEAR     54  38  54 W9        29.94F
$$

IAZ064-065-067-068-078-061000-
   EAST CENTRAL IOWA

CITY           SKY/WX    TMP DP  RH WIND       PRES   REMARKS
DAVENPORT      CLEAR     50  39  66 SW5       29.99F
IOWA CITY      CLEAR     46  42  86 CALM      29.99F
MT. PLEASANT * CLEAR     50  39  66 SW6       30.00S
MUSCATINE *    CLEAR     48  41  76 S5        29.99F
QUAD CITIES    CLEAR     46  40  79 CALM      29.98S
$$

IAZ062-063-075>077-085>089-095>099-061000-
   SOUTHEAST IOWA

CITY           SKY/WX    TMP DP  RH WIND       PRES   REMARKS
BURLINGTON     CLEAR     49  40  71 W3        30.00S
FAIRFIELD *    CLEAR     50  37  62 SW8       30.00S
FORT MADISON * CLEAR     50  41  71 SW3       30.02R
KEOKUK *       CLEAR     46  43  87 SW6       30.01S
OSKALOOSA *      N/A     46  37  71 SW7       30.00S
OTTUMWA        CLEAR     51  37  58 SW7       30.00S
WASHINGTON *   CLEAR     48  39  71 SW7       30.01R
$$

ABBREVIATIONS USED IN REMARKS
   TC - TEMPERATURES IN CELSIUS
  WCI - WIND CHILL INDEX
   HX - HEAT INDEX
  VSB - VISIBILITY
$$




USA.gov is the U.S. government's official web portal to all federal, state and local government web resources and services.